Location: Oshawa
(43.9000°N, 78.8670°W)
Time: 21:49:08
(UTC-05:00)

SPOT 5 - Visible Passes

Search period start: 03 March 2015 00:00
Search period end: 13 March 2015 01:00
Orbit: 824 x 826 km, 98.5° (Epoch: 03 March)

Date Brightness Start Highest point End Pass type
(mag) Time Alt. Az. Time Alt. Az. Time Alt. Az.
03 Mar 4.2 20:13:15 28° NE 20:13:15 28° NE 20:16:39 10° N visible
03 Mar 5.2 21:54:42 23° NW 21:54:42 23° NW 21:57:00 10° NNW visible
04 Mar 4.5 19:53:32 22° NE 19:53:32 22° NE 19:56:53 10° NNE visible
04 Mar 4.7 21:34:59 31° NW 21:34:59 31° NW 21:37:53 10° NNW visible
05 Mar 4.7 19:33:48 16° ENE 19:33:48 16° ENE 19:36:53 10° NNE visible
05 Mar 4.2 21:15:16 39° NNW 21:15:16 39° NNW 21:18:37 10° NNW visible
06 Mar 5.0 19:14:06 11° ENE 19:14:29 11° ENE 19:16:13 10° NE visible
06 Mar 3.9 20:55:33 44° N 20:55:33 44° N 20:59:15 10° N visible
06 Mar 5.9 22:36:59 12° WNW 22:36:59 12° WNW 22:37:47 10° NW visible
07 Mar 3.8 20:35:49 41° NNE 20:35:49 41° NNE 20:39:46 10° N visible
07 Mar 5.5 22:17:16 18° WNW 22:17:16 18° WNW 22:19:16 10° NW visible
08 Mar 4.0 21:16:06 33° NE 21:16:06 33° NE 21:20:10 10° N visible
08 Mar 5.1 22:57:33 26° NW 22:57:33 26° NW 23:00:23 10° NNW visible
09 Mar 4.3 20:56:23 24° ENE 20:56:23 24° ENE 21:00:26 10° N visible
09 Mar 4.5 22:37:50 36° NW 22:37:50 36° NW 22:41:17 10° NNW visible
10 Mar 4.6 20:36:40 17° ENE 20:36:58 17° ENE 20:40:28 10° NNE visible
10 Mar 3.9 22:18:07 48° NNW 22:18:07 48° NNW 22:22:03 10° NNW visible
11 Mar 5.0 20:16:56 12° ENE 20:17:52 12° ENE 20:20:02 10° NNE visible
11 Mar 3.5 21:58:24 57° N 21:58:24 57° N 22:02:42 10° N visible
11 Mar 5.9 23:39:50 13° WNW 23:39:50 13° WNW 23:40:57 10° NW visible
12 Mar 3.5 21:38:41 50° NE 21:38:41 50° NE 21:43:14 10° N visible
12 Mar 5.4 23:20:08 19° WNW 23:20:08 19° WNW 23:22:34 10° NW visible
